TimeCDT,TemperatureF,Dew PointF,Humidity,Sea Level PressureIn,VisibilityMPH,Wind Direction,Wind SpeedMPH,Gust SpeedMPH,PrecipitationIn,Events,Conditions,WindDirDegrees,DateUTC
12:54 AM,63.0,62.1,97,29.85,5.0,ESE,5.8,-,N/A,,Clear,120,2013-09-19 05:54:00
1:54 AM,62.1,62.1,100,29.85,3.0,East,5.8,-,N/A,,Clear,100,2013-09-19 06:54:00
2:23 AM,62.6,62.6,100,29.85,3.0,ESE,5.8,-,N/A,,Partly Cloudy,110,2013-09-19 07:23:00
2:52 AM,62.6,62.6,100,29.85,2.5,East,4.6,-,N/A,,Scattered Clouds,100,2013-09-19 07:52:00
2:54 AM,62.1,62.1,100,29.85,2.5,East,3.5,-,N/A,,Scattered Clouds,100,2013-09-19 07:54:00
3:07 AM,62.6,62.6,100,29.84,2.0,ESE,4.6,-,N/A,,Mostly Cloudy,110,2013-09-19 08:07:00
3:45 AM,62.6,62.6,100,29.83,2.0,East,6.9,-,N/A,,Overcast,100,2013-09-19 08:45:00
3:54 AM,63.0,62.1,97,29.83,1.8,East,5.8,-,N/A,,Overcast,90,2013-09-19 08:54:00
4:54 AM,63.0,63.0,100,29.81,0.8,East,5.8,-,N/A,,Overcast,100,2013-09-19 09:54:00
5:07 AM,64.4,62.6,94,29.80,1.2,ESE,6.9,-,N/A,,Overcast,120,2013-09-19 10:07:00
5:36 AM,64.4,64.4,100,29.82,2.0,SSW,6.9,-,N/A,,Overcast,200,2013-09-19 10:36:00
5:43 AM,66.2,66.2,100,29.83,3.0,South,9.2,-,N/A,,Overcast,190,2013-09-19 10:43:00
5:52 AM,66.2,66.2,100,29.83,4.0,SSW,9.2,-,N/A,Thunderstorm,Overcast,210,2013-09-19 10:52:00
5:54 AM,68.0,66.0,93,29.83,4.0,SSW,9.2,-,N/A,Thunderstorm,Overcast,200,2013-09-19 10:54:00
6:13 AM,68.0,66.2,94,29.83,3.0,West,6.9,-,0.04,Rain-Thunderstorm,Light Thunderstorms and Rain,260,2013-09-19 11:13:00
6:54 AM,66.9,64.9,93,29.82,8.0,SSW,4.6,-,0.05,Thunderstorm,Mostly Cloudy,200,2013-09-19 11:54:00
7:10 AM,66.2,64.4,94,29.81,9.0,Calm,Calm,-,N/A,,Scattered Clouds,0,2013-09-19 12:10:00
7:30 AM,66.2,64.4,94,29.83,7.0,Calm,Calm,-,0.00,Rain-Thunderstorm,Light Rain,0,2013-09-19 12:30:00
7:54 AM,66.9,66.0,97,29.83,6.0,SSE,9.2,-,0.00,Rain-Thunderstorm,Light Rain,160,2013-09-19 12:54:00
8:11 AM,68.0,66.2,94,29.81,4.0,SSE,5.8,-,0.01,Rain,Light Rain,150,2013-09-19 13:11:00
8:54 AM,68.0,66.9,96,29.80,4.0,Variable,3.5,-,0.02,,Clear,0,2013-09-19 13:54:00
9:54 AM,72.0,69.1,91,29.78,7.0,South,6.9,-,N/A,,Scattered Clouds,170,2013-09-19 14:54:00
10:54 AM,75.0,69.1,82,29.80,8.0,South,8.1,-,N/A,,Mostly Cloudy,170,2013-09-19 15:54:00
11:54 AM,77.0,68.0,74,29.78,10.0,South,13.8,-,N/A,,Overcast,170,2013-09-19 16:54:00
12:54 PM,78.1,68.0,71,29.76,10.0,SSW,15.0,21.9,N/A,,Overcast,200,2013-09-19 17:54:00
1:17 PM,78.8,68.0,69,29.76,10.0,South,10.4,-,N/A,,Scattered Clouds,190,2013-09-19 18:17:00
1:54 PM,78.1,69.1,74,29.76,10.0,SW,9.2,-,N/A,,Scattered Clouds,220,2013-09-19 18:54:00
2:09 PM,78.8,68.0,69,29.76,10.0,SSW,12.7,-,N/A,Thunderstorm,Mostly Cloudy,200,2013-09-19 19:09:00
2:28 PM,75.2,68.0,78,29.77,9.0,SSW,9.2,-,0.01,Thunderstorm,Thunderstorm,200,2013-09-19 19:28:00
2:37 PM,75.2,69.8,83,29.76,10.0,South,8.1,-,0.01,Thunderstorm,Thunderstorm,190,2013-09-19 19:37:00
2:47 PM,77.0,68.0,74,29.76,10.0,SSW,12.7,-,0.01,Thunderstorm,Overcast,200,2013-09-19 19:47:00
2:54 PM,75.9,68.0,76,29.75,10.0,SSW,10.4,-,0.01,,Overcast,200,2013-09-19 19:54:00
3:54 PM,75.9,69.1,79,29.73,10.0,South,4.6,-,0.00,,Overcast,190,2013-09-19 20:54:00
4:54 PM,75.9,70.0,82,29.72,10.0,SSE,9.2,-,N/A,,Overcast,160,2013-09-19 21:54:00
5:20 PM,75.2,69.8,83,29.71,10.0,South,5.8,-,N/A,Thunderstorm,Overcast,170,2013-09-19 22:20:00
5:35 PM,75.2,69.8,83,29.70,10.0,South,3.5,-,N/A,,Overcast,170,2013-09-19 22:35:00
5:54 PM,75.0,69.1,82,29.68,10.0,SE,5.8,-,N/A,,Scattered Clouds,140,2013-09-19 22:54:00
6:54 PM,73.9,69.1,85,29.72,9.0,South,4.6,-,N/A,,Partly Cloudy,190,2013-09-19 23:54:00
7:54 PM,72.0,68.0,87,29.73,10.0,NW,15.0,20.7,N/A,,Overcast,310,2013-09-20 00:54:00
8:05 PM,71.6,64.4,78,29.74,10.0,NW,12.7,23.0,N/A,,Overcast,310,2013-09-20 01:05:00
8:15 PM,69.8,66.2,88,29.74,10.0,NNW,8.1,-,N/A,Thunderstorm,Overcast,330,2013-09-20 01:15:00
8:38 PM,68.0,66.2,94,29.73,2.0,Calm,Calm,-,0.14,Rain-Thunderstorm,Heavy Thunderstorms and Rain,0,2013-09-20 01:38:00
8:54 PM,68.0,66.0,93,29.73,10.0,Calm,Calm,-,0.14,Rain-Thunderstorm,Light Rain,0,2013-09-20 01:54:00
9:22 PM,66.2,66.2,100,29.74,7.0,South,4.6,-,0.02,Rain-Thunderstorm,Rain,180,2013-09-20 02:22:00
9:29 PM,66.2,66.2,100,29.74,3.0,WSW,4.6,-,0.06,Rain,Heavy Rain,250,2013-09-20 02:29:00
9:33 PM,66.2,66.2,100,29.74,2.5,SSW,5.8,-,0.08,Rain,Heavy Rain,200,2013-09-20 02:33:00
9:45 PM,66.2,66.2,100,29.74,4.0,South,6.9,-,0.12,Rain,Heavy Rain,180,2013-09-20 02:45:00
9:54 PM,66.9,66.0,97,29.73,5.0,SSW,5.8,-,0.13,Rain,Rain,200,2013-09-20 02:54:00
10:54 PM,66.0,64.9,96,29.69,9.0,WNW,3.5,-,0.08,Rain,Light Rain,300,2013-09-20 03:54:00
11:54 PM,66.0,64.9,96,29.72,10.0,West,4.6,-,0.00,,Scattered Clouds,280,2013-09-20 04:54:00